GW5216 Weather Reports


time (UTC)temp
F
wind
direction
speed
knots
gust
knots
rain 1hr
in
rain 24hr
in
rain mn
in
humidity
%
barometer
mb
20260506091646 45 270 0.0 0.0 0.00 0.00 0.00 88 1017.0
20260506091143 45 270 0.0 0.0 0.00 0.00 0.00 88 1017.0
20260506090641 45 270 0.0 0.0 0.00 0.00 0.00 88 1016.9
20260506090137 45 270 0.0 0.0 0.00 0.00 0.00 88 1017.0
20260506085634 45 270 0.0 0.0 0.00 0.00 0.00 86 1017.0
20260506085130 45 247 0.0 0.0 0.00 0.00 0.00 87 1017.0
20260506084627 45 247 0.0 0.9 0.00 0.00 0.00 86 1016.9
20260506084124 45 247 0.0 0.0 0.00 0.00 0.00 87 1017.0
20260506083621 45 247 0.0 0.0 0.00 0.00 0.00 86 1016.9
20260506083118 45 294 0.0 0.0 0.00 0.00 0.00 87 1016.8
20260506082615 45 315 0.0 0.9 0.00 0.00 0.00 87 1016.9
20260506082110 45 315 0.0 0.0 0.00 0.00 0.00 86 1016.8
20260506081609 45 337 0.0 0.0 0.00 0.00 0.00 86 1016.8
20260506081106 45 337 0.0 0.0 0.00 0.00 0.00 87 1016.9
20260506080604 45 337 0.0 0.0 0.00 0.00 0.00 86 1016.8
20260506073044 45 247 0.0 0.0 0.00 0.00 0.00 87 1016.9
20260506072541 45 261 0.0 0.9 0.00 0.00 0.00 88 1016.8
20260506072039 45 292 0.0 0.0 0.00 0.00 0.00 88 1016.8
20260506071536 45 292 0.0 0.0 0.00 0.00 0.00 88 1016.8
20260506071034 45 292 0.0 0.0 0.00 0.00 0.00 87 1016.8
20260506070531 44 292 0.0 0.0 0.00 0.00 0.00 87 1016.8
20260506062508 44 292 0.0 0.0 0.00 0.00 0.00 86 1016.5
20260506062005 44 292 0.0 0.0 0.00 0.00 0.00 85 1016.5
20260506061500 44 292 0.0 0.0 0.00 0.00 0.00 86 1016.6
20260506060958 45 292 0.0 0.0 0.00 0.00 0.00 86 1016.5
20260506060456 45 292 0.0 0.0 0.00 0.00 0.00 85 1016.5
20260506050925 47 291 0.0 2.6 0.00 0.00 0.00 79 1016.6
20260506050423 47 270 0.0 0.9 0.00 0.00 0.00 78 1016.5
20260506044913 48 247 0.0 0.0 0.00 0.00 0.00 75 1016.4
20260506044411 48 247 0.0 0.0 0.00 0.00 0.00 74 1016.3
20260506043908 49 247 0.0 0.0 0.00 0.00 0.00 74 1016.3
20260506043406 49 247 0.0 0.0 0.00 0.00 0.00 72 1016.2
20260506042903 49 270 0.0 1.7 0.00 0.00 0.00 71 1016.2
20260506042403 50 270 0.0 0.0 0.00 0.00 0.00 71 1016.2
20260506041900 50 292 0.0 0.0 0.00 0.00 0.00 70 1016.1
20260506041357 50 303 0.0 0.0 0.00 0.00 0.00 70 1016.0
20260506040855 51 245 0.0 0.9 0.00 0.00 0.00 70 1016.0
20260506040352 51 247 0.0 0.0 0.00 0.00 0.00 69 1016.0
20260506035848 51 247 0.0 0.0 0.00 0.00 0.00 69 1016.1
20260506035345 52 247 0.0 0.0 0.00 0.00 0.00 66 1015.9
20260506034843 52 222 0.9 2.6 0.00 0.00 0.00 66 1015.8
20260506034340 53 180 0.0 0.0 0.00 0.00 0.00 64 1015.7
20260506033836 54 190 0.0 0.0 0.00 0.00 0.00 62 1015.8
20260506033334 54 180 2.6 5.2 0.00 0.00 0.00 61 1015.9
20260506032830 55 158 1.7 4.3 0.00 0.00 0.00 61 1015.9
20260506032327 55 185 0.9 1.7 0.00 0.00 0.00 60 1015.7
20260506031824 55 157 0.0 0.0 0.00 0.00 0.00 61 1015.8
20260506031322 55 232 0.0 2.6 0.00 0.00 0.00 59 1015.8
20260506030819 56 357 0.9 2.6 0.00 0.00 0.00 58 1015.7
20260506030317 56 219 0.0 1.7 0.00 0.00 0.00 58 1015.6
20260506025813 57 182 0.9 2.6 0.00 0.00 0.00 56 1015.6
20260506025310 57 189 0.0 0.9 0.00 0.00 0.00 57 1015.6
20260506024807 57 220 0.9 3.5 0.00 0.00 0.00 56 1015.4
20260506024303 57 230 0.0 1.7 0.00 0.00 0.00 57 1015.4
20260506023800 57 163 0.0 1.7 0.00 0.00 0.00 56 1015.4
20260506023257 57 165 0.9 3.5 0.00 0.00 0.00 55 1015.3
20260506022753 57 209 0.9 4.3 0.00 0.00 0.00 54 1015.2
20260506022251 58 246 0.9 2.6 0.00 0.00 0.00 54 1015.2
20260506021749 58 177 1.7 3.5 0.00 0.00 0.00 53 1015.1
20260506021246 58 190 1.7 5.2 0.00 0.00 0.00 53 1015.1
20260506020742 59 171 0.9 2.6 0.00 0.00 0.00 53 1014.9
20260506020241 59 168 0.9 2.6 0.00 0.00 0.00 53 1014.9
20260506015738 59 187 1.7 5.2 0.00 0.00 0.00 53 1014.9
20260506015235 59 165 1.7 4.3 0.00 0.00 0.00 52 1014.9
20260506014732 60 142 0.9 2.6 0.00 0.00 0.00 51 1014.9
20260506014228 60 202 1.7 4.3 0.00 0.00 0.00 50 1014.9
20260506013726 60 201 1.7 2.6 0.00 0.00 0.00 48 1014.8
20260506013223 61 188 1.7 5.2 0.00 0.00 0.00 48 1014.8
20260506012719 61 129 1.7 2.6 0.00 0.00 0.00 48 1014.8
20260506012216 61 348 1.7 3.5 0.00 0.00 0.00 48 1014.7
20260506011713 61 172 0.0 0.9 0.00 0.00 0.00 47 1014.5
20260506011209 62 178 0.0 2.6 0.00 0.00 0.00 47 1014.4
20260506010708 62 193 2.6 6.1 0.00 0.00 0.00 47 1014.5
20260506010205 62 141 0.9 2.6 0.00 0.00 0.00 47 1014.5
20260506005702 62 203 0.9 3.5 0.00 0.00 0.00 46 1014.5
20260506005159 62 169 1.7 4.3 0.00 0.00 0.00 45 1014.6
20260506004655 62 163 2.6 3.5 0.00 0.00 0.00 44 1014.6
20260506004152 63 218 0.9 1.7 0.00 0.00 0.00 44 1014.7
20260506003648 63 79 1.7 4.3 0.00 0.00 0.00 44 1014.6
20260506003145 63 192 1.7 4.3 0.00 0.00 0.00 44 1014.5
20260506002641 63 203 2.6 5.2 0.00 0.00 0.00 44 1014.5
20260506002137 63 199 0.9 3.5 0.00 0.00 0.00 43 1014.5
20260506001633 63 187 3.5 7.0 0.00 0.00 0.00 43 1014.5
20260506001131 63 181 2.6 7.0 0.00 0.00 0.00 44 1014.5
20260506000628 63 217 1.7 4.3 0.00 0.00 0.00 44 1014.4
20260506000125 64 202 0.9 1.7 0.00 0.00 0.00 42 1014.3
20260505235623 64 225 0.9 1.7 0.00 0.00 0.00 43 1014.2
20260505235120 64 213 3.5 6.1 0.00 0.00 0.00 43 1014.2
20260505234617 65 232 0.9 3.5 0.00 0.00 0.00 43 1014.1
20260505234113 65 171 0.0 1.7 0.00 0.00 0.00 45 1013.9
20260505233611 65 219 0.0 0.0 0.00 0.00 0.00 45 1013.9
20260505233108 65 139 1.7 2.6 0.00 0.00 0.00 45 1013.9
20260505232606 65 145 1.7 3.5 0.00 0.00 0.00 45 1014.0
20260505232103 65 202 0.9 1.7 0.00 0.00 0.00 47 1014.0
20260505231600 65 205 0.9 4.3 0.00 0.00 0.00 47 1014.2
20260505231059 65 208 0.9 2.6 0.00 0.00 0.00 47 1014.0
20260505230556 65 206 0.9 2.6 0.00 0.00 0.00 47 1014.0
20260505230052 64 184 1.7 6.1 0.00 0.00 0.00 49 1014.0
20260505225549 64 266 0.0 1.7 0.00 0.00 0.00 50 1013.9
20260505225045 64 188 1.7 3.5 0.00 0.00 0.00 49 1013.8
20260505224542 64 299 1.7 3.5 0.00 0.00 0.00 49 1013.8
20260505224039 64 299 1.7 4.3 0.00 0.00 0.00 48 1013.7
20260505223536 65 121 1.7 3.5 0.00 0.00 0.00 45 1013.6
20260505223032 66 263 0.9 3.5 0.00 0.00 0.00 45 1013.6
20260505222529 67 284 1.7 7.0 0.00 0.00 0.00 44 1013.6
20260505222025 68 177 0.9 1.7 0.00 0.00 0.00 43 1013.5
20260505221522 68 185 1.7 2.6 0.00 0.00 0.00 42 1013.5
20260505221019 69 185 0.9 2.6 0.00 0.00 0.00 41 1013.4
20260505220516 70 155 1.7 3.5 0.00 0.00 0.00 40 1013.4
20260505220014 70 256 1.7 5.2 0.00 0.00 0.00 41 1013.4
20260505215512 70 213 0.9 2.6 0.00 0.00 0.00 42 1013.3
20260505215009 69 195 0.9 2.6 0.00 0.00 0.00 44 1013.5
20260505214508 69 201 0.9 2.6 0.00 0.00 0.00 43 1013.4
20260505214004 69 109 0.9 2.6 0.00 0.00 0.00 44 1013.5
20260505213502 69 251 0.0 1.7 0.00 0.00 0.00 45 1013.3
20260505212958 68 206 0.9 2.6 0.00 0.00 0.00 45 1013.3
20260505212454 68 200 0.0 0.9 0.00 0.00 0.00 44 1013.3
20260505211951 68 217 0.0 0.0 0.00 0.00 0.00 44 1013.1
20260505211449 69 200 1.7 3.5 0.00 0.00 0.00 44 1013.1
20260505210945 69 192 1.7 3.5 0.00 0.00 0.00 46 1013.2
20260505210442 69 209 0.9 1.7 0.00 0.00 0.00 45 1013.1
20260505205938 69 349 0.0 1.7 0.00 0.00 0.00 45 1013.0
20260505205437 69 170 2.6 4.3 0.00 0.00 0.00 45 1012.9
20260505204933 69 199 0.9 2.6 0.00 0.00 0.00 47 1013.0
20260505204432 69 297 0.0 1.7 0.00 0.00 0.00 50 1013.0
20260505203929 68 157 0.0 1.7 0.00 0.00 0.00 49 1012.9
20260505203425 68 226 0.9 1.7 0.00 0.00 0.00 47 1012.6
20260505202921 68 49 0.9 2.6 0.00 0.00 0.00 49 1012.7
20260505202417 67 180 0.9 3.5 0.00 0.00 0.00 51 1012.7
20260505201914 66 159 0.0 2.6 0.00 0.00 0.00 51 1012.6
20260505201411 65 165 0.9 3.5 0.00 0.00 0.00 53 1012.5
20260505200910 65 214 0.9 2.6 0.00 0.00 0.00 53 1012.4
20260505200406 65 192 1.7 7.8 0.00 0.00 0.00 56 1012.5
20260505195901 63 176 0.9 2.6 0.00 0.00 0.00 59 1012.5
20260505195359 62 145 0.0 3.5 0.00 0.00 0.00 62 1012.4
20260505194856 62 66 0.0 1.7 0.00 0.00 0.00 64 1012.4
20260505194354 62 281 0.0 0.0 0.00 0.00 0.00 62 1012.4
20260505193854 62 282 0.9 4.3 0.00 0.00 0.00 62 1012.5
20260505193352 61 214 0.9 2.6 0.00 0.00 0.00 64 1012.4
20260505192849 61 247 0.0 0.9 0.00 0.00 0.00 65 1012.2
20260505192348 60 251 0.9 2.6 0.00 0.00 0.00 69 1012.2
20260505191845 61 310 0.9 2.6 0.00 0.00 0.00 69 1012.1
20260505191343 61 315 0.0 1.7 0.00 0.00 0.00 67 1012.1
20260505190840 61 301 0.9 2.6 0.00 0.00 0.00 68 1012.2
20260505190335 61 292 0.9 1.7 0.00 0.00 0.00 70 1012.2
20260505185831 61 292 0.9 1.7 0.00 0.00 0.00 68 1012.1
20260505185328 61 325 0.0 0.9 0.00 0.00 0.00 66 1012.0
20260505184824 61 258 0.0 0.9 0.00 0.00 0.00 68 1012.0
20260505184321 60 337 0.0 0.0 0.00 0.00 0.00 71 1011.9
20260505183818 59 45 0.0 0.0 0.00 0.00 0.00 73 1012.0
20260505183315 59 292 0.0 0.0 0.00 0.00 0.00 74 1012.0
20260505182812 58 307 0.0 1.7 0.00 0.00 0.00 72 1012.2
20260505182308 58 315 0.9 1.7 0.00 0.00 0.00 72 1012.1
20260505181805 58 202 0.0 0.0 0.00 0.00 0.00 75 1011.9
20260505181303 57 3 0.0 0.0 0.00 0.00 0.00 75 1011.8
20260505180759 57 18 0.9 4.3 0.00 0.00 0.00 76 1011.8
20260505180255 56 271 0.0 1.7 0.00 0.00 0.00 78 1011.7
20260505175752 56 337 0.0 1.7 0.00 0.00 0.00 80 1011.6
20260505175248 55 214 0.0 0.0 0.00 0.00 0.00 80 1011.7
20260505174745 55 310 0.0 0.0 0.00 0.00 0.00 80 1011.7
20260505174242 55 270 0.0 0.0 0.00 0.00 0.00 80 1011.7
20260505173738 55 288 0.0 0.0 0.00 0.00 0.00 81 1011.6
20260505173235 55 279 0.9 1.7 0.00 0.00 0.00 81 1011.9
20260505172732 55 270 0.0 0.0 0.00 0.00 0.00 81 1011.5
20260505172229 54 308 0.0 0.9 0.00 0.00 0.00 84 1011.6
20260505171729 53 292 0.0 0.0 0.00 0.00 0.00 84 1011.6
20260505171226 53 292 0.0 0.0 0.00 0.00 0.00 84 1011.6
20260505170723 52 278 0.0 0.0 0.00 0.00 0.00 84 1011.7
20260505170220 52 289 0.0 1.7 0.00 0.00 0.00 85 1011.5
20260505165715 52 315 0.0 0.9 0.00 0.00 0.00 86 1011.4
20260505165211 51 315 0.9 2.6 0.00 0.00 0.00 89 1011.5
20260505164707 50 315 0.9 1.7 0.00 0.00 0.00 90 1011.3
20260505164204 50 309 0.9 2.6 0.00 0.00 0.00 90 1011.2
20260505163702 49 293 0.9 1.7 0.00 0.00 0.00 91 1011.2
20260505163201 49 315 0.0 0.9 0.00 0.00 0.00 91 1011.1
20260505162658 49 315 0.0 0.0 0.00 0.00 0.00 92 1011.0
20260505162155 49 315 0.0 0.0 0.00 0.00 0.00 90 1011.0
20260505161651 49 315 0.0 0.0 0.00 0.00 0.00 90 1010.8
20260505161149 49 292 0.0 0.0 0.00 0.00 0.00 91 1010.8
20260505160647 49 292 0.0 0.0 0.00 0.00 0.00 92 1010.7
20260505160144 49 328 0.0 0.0 0.00 0.00 0.00 92 1010.6
20260505153123 47 292 0.0 0.0 0.00 0.00 0.00 95 1010.4
20260505152620 47 292 0.0 0.0 0.00 0.00 0.00 96 1010.2
20260505152115 46 292 0.0 0.0 0.00 0.00 0.00 97 1010.2
20260505151611 46 292 0.0 0.0 0.00 0.00 0.00 98 1010.0
20260505151109 45 337 0.0 0.0 0.00 0.00 0.00 99 1010.0
20260505150605 45 337 0.0 0.0 0.00 0.00 0.00 98 1009.9
20260505140530 43 337 0.0 0.0 0.00 0.00 0.00 99 1010.0
20260505124943 42 337 0.0 0.0 0.00 0.00 0.00 98 1009.4
20260505124440 42 337 0.0 0.0 0.00 0.00 0.00 99 1009.6
20260505123936 42 337 0.0 0.0 0.00 0.00 0.00 99 1009.4
20260505123433 42 337 0.0 0.0 0.00 0.00 0.00 98 1009.3
20260505122929 42 337 0.0 0.0 0.00 0.00 0.00 98 1009.0
20260505122427 42 337 0.0 0.0 0.00 0.00 0.00 98 1009.2
20260505121923 42 337 0.0 0.0 0.00 0.00 0.00 98 1009.1
20260505121420 42 337 0.0 0.0 0.00 0.00 0.00 98 1009.3
20260505120916 42 337 0.0 0.0 0.00 0.00 0.00 99 1009.3
20260505120413 42 337 0.0 0.0 0.00 0.00 0.00 98 1009.3
20260505115912 42 337 0.0 0.0 0.00 0.00 0.00 97 1009.2
20260505115408 42 337 0.0 0.0 0.00 0.00 0.00 98 1009.2
20260505114906 43 337 0.0 0.0 0.00 0.00 0.00 97 1009.1
20260505114402 43 337 0.0 0.0 0.00 0.00 0.00 97 1009.2
20260505113859 43 337 0.0 0.0 0.00 0.00 0.00 97 1009.2
20260505113356 43 337 0.0 0.0 0.00 0.00 0.00 98 1009.4
20260505112851 43 337 0.0 0.0 0.00 0.00 0.00 99 1009.3
20260505112349 43 337 0.0 0.0 0.00 0.00 0.00 98 1009.4
20260505111845 43 337 0.0 0.0 0.00 0.00 0.00 98 1009.5
20260505111340 43 337 0.0 0.0 0.00 0.00 0.00 98 1009.4
20260505110836 43 337 0.0 0.0 0.00 0.00 0.00 96 1009.4
20260505110334 43 337 0.0 0.0 0.00 0.00 0.00 96 1009.6
20260505101809 44 337 0.0 0.0 0.00 0.00 0.00 96 1009.8
20260505101304 44 337 0.0 0.0 0.00 0.00 0.00 95 1009.7
20260505100800 44 337 0.0 0.0 0.00 0.00 0.00 93 1009.8
20260505100257 44 337 0.0 0.0 0.00 0.00 0.00 92 1009.9
20260505095753 45 337 0.0 0.0 0.00 0.00 0.00 91 1009.8
20260505095251 45 337 0.0 0.0 0.00 0.00 0.00 92 1010.0
20260505094746 46 337 0.0 0.0 0.00 0.00 0.00 92 1009.8
20260505094243 45 337 0.0 0.0 0.00 0.00 0.00 92 1010.0
20260505093739 45 337 0.0 0.0 0.00 0.00 0.00 92 1009.9
20260505093237 46 337 0.0 0.0 0.00 0.00 0.00 93 1009.9
20260505092733 46 337 0.0 0.0 0.00 0.00 0.00 94 1009.9
20260505092232 46 337 0.0 0.0 0.00 0.00 0.00 93 1010.1